AEROCUBE 10 PROBE (44516 NORAD) Tracking and Keplerian Element Data

This shows tracking and keplerian element data for the satellite.

Feedback or suggestion? Click here.




ElementValue
Catalog44516
NameAEROCUBE 10 PROBE
Epoch Orbit259
Epoch Day256.11706579
Epoch Year2019
RAAN290.9083
Inclination51.643
Eccentricity0.0013587
Argument of Perigee23.2266
Mean Anonmoly336.9213
Mean Motion15.30586245
Decay Rate0.00040129
L11 44516U 19022J 19256.11706579 .00040129 00000-0 13388-2 0 9994
L22 44516 51.6430 290.9083 0013587 23.2266 336.9213 15.30586245 2599

Live tracking and technical data element details for AEROCUBE 10 PROBE (NORAD 44516). AEROCUBE 10 PROBE can be tracked NOW for your location showing map with azimuth and elevation plus other details from your city location.

Track the satellite on the map from your city or location and see movement details for azimuth, elevation, latitude, longitude, range, height, and movement on the map or in text.







IsCatalogInMostPopularTable: catalog: 44516, numindb: 21
Update: records affected: 1



GetName: 44516 AEROCUBE 10 PROBE

Hit Count: updated at: Thu, 05 Dec 2019 17:35:27 GMT